This demonstration page uses our WeatherBlox Daily Observations layout. Learn more.

Left ArrowRight Arrow

36.17497, -115.13722

Hourly Observations for June 30, 2021

Temp ( °F °C ) Dew Point ( °F °C ) Humidity (%) Winds ( mph kmh ) Pressure ( in mb ) Visibility ( mi km ) Precip ( " mm )
12:53 am 00:53 Clear 79 26.1 59 15 50 50 SW 7 11 29.89 1012 10 16 N/A
1:53 am 01:53 Clear 80 26.7 57 13.9 45 45 SSW 6 9 29.85 1011 10 16 N/A
2:53 am 02:53 Clear 77 25 59 15 54 54 E 10 17 29.83 1010 10 16 N/A
3:53 am 03:53 Clear 77 25 58 14.4 52 52 ENE 13 20 29.86 1011 10 16 N/A
4:53 am 04:53 Clear 76 24.4 57 13.9 52 52 E 9 15 29.88 1012 10 16 N/A
5:53 am 05:53 Sunny 77 25 58 14.4 52 52 SW 6 9 29.91 1013 10 16 N/A
6:53 am 06:53 Sunny 79 26.1 57 13.9 47 47 S 5 7 29.90 1012 10 16 N/A
7:53 am 07:53 Sunny 80 26.7 57 13.9 45 45 SSE 5 7 29.92 1013 10 16 N/A
8:53 am 08:53 Mostly Cloudy with Light Rain 78 25.6 61 16.1 56 56 S 3 6 29.96 1015 10 16 0.00 0.00
9:53 am 09:53 Mostly Cloudy 81 27.2 59 15 47 47 N N/A 29.97 1015 10 16 0.00 0.00
10:53 am 10:53 Mostly Sunny 83 28.3 59 15 44 44 SE 5 7 29.98 1015 10 16 0.00 0.00
11:53 am 11:53 Sunny 86 30 56 13.3 36 36 E 9 15 29.97 1015 10 16 N/A
12:53 pm 12:53 Sunny 87 30.6 56 13.3 35 35 SE 10 17 29.95 1014 10 16 N/A
1:53 pm 13:53 Sunny 88 31.1 55 12.8 33 33 S 6 9 29.93 1014 10 16 N/A
2:53 pm 14:53 Sunny 90 32.2 56 13.3 32 32 undefined N/A 29.89 1012 10 16 N/A
3:53 pm 15:53 Sunny 92 33.3 54 12.2 28 28 SE 7 11 29.85 1011 10 16 N/A
4:53 pm 16:53 Sunny 93 33.9 54 12.2 27 27 VRB 5 7 29.83 1010 10 16 N/A
5:53 pm 17:53 Sunny 94 34.4 53 11.7 25 25 ESE 6 9 29.82 1010 10 16 N/A
6:53 pm 18:53 Sunny 94 34.4 53 11.7 25 25 ENE 6 9 29.83 1010 10 16 N/A
7:53 pm 19:53 Sunny 93 33.9 53 11.7 26 26 ENE 6 9 29.83 1010 10 16 N/A
8:53 pm 20:53 Clear 91 32.8 55 12.8 30 30 E 8 13 29.83 1010 10 16 N/A
9:53 pm 21:53 Clear 90 32.2 57 13.9 33 33 NE 6 9 29.85 1011 10 16 N/A
10:53 pm 22:53 Clear 89 31.7 57 13.9 34 34 W 3 6 29.86 1011 10 16 N/A
11:53 pm 23:53 Clear 88 31.1 58 14.4 36 36 SW 5 7 29.84 1011 10 16 N/A

Powered by AerisWeather